TimeEDT,TemperatureF,Dew PointF,Humidity,Sea Level PressureIn,VisibilityMPH,Wind Direction,Wind SpeedMPH,Gust SpeedMPH,PrecipitationIn,Events,Conditions,WindDirDegrees,DateUTC
12:51 AM,57.0,51.1,81,29.94,10.0,ESE,4.6,-,N/A,,Clear,120,2012-10-27 04:51:00
1:51 AM,55.0,50.0,83,29.94,10.0,ESE,3.5,-,N/A,,Clear,120,2012-10-27 05:51:00
2:51 AM,54.0,50.0,86,29.92,10.0,Calm,Calm,-,N/A,,Clear,0,2012-10-27 06:51:00
3:51 AM,55.0,51.1,86,29.89,10.0,Calm,Calm,-,N/A,,Partly Cloudy,0,2012-10-27 07:51:00
4:09 AM,55.4,51.8,88,29.97,10.0,WSW,3.5,-,N/A,,Mostly Cloudy,240,2012-10-27 08:09:00
4:51 AM,55.0,51.1,86,29.90,10.0,Calm,Calm,-,N/A,,Overcast,0,2012-10-27 08:51:00
5:51 AM,55.9,52.0,87,29.89,10.0,Calm,Calm,-,N/A,,Overcast,0,2012-10-27 09:51:00
6:51 AM,55.0,52.0,89,29.90,10.0,Calm,Calm,-,N/A,,Overcast,0,2012-10-27 10:51:00
7:51 AM,55.9,52.0,87,29.90,10.0,Calm,Calm,-,N/A,,Overcast,0,2012-10-27 11:51:00
8:51 AM,57.0,52.0,83,29.93,10.0,Calm,Calm,-,N/A,,Overcast,0,2012-10-27 12:51:00
9:51 AM,57.2,53.6,88,29.98,10.0,ESE,3.5,-,N/A,,Overcast,120,2012-10-27 13:51:00
10:51 AM,60.1,53.1,78,29.93,10.0,North,3.5,-,N/A,,Overcast,360,2012-10-27 14:51:00
11:51 AM,57.9,52.0,81,29.93,10.0,North,5.8,-,N/A,,Overcast,10,2012-10-27 15:51:00
12:37 PM,55.4,50.0,82,29.97,10.0,North,8.1,-,N/A,,Overcast,350,2012-10-27 16:37:00
12:51 PM,54.0,50.0,86,29.94,10.0,North,9.2,-,N/A,,Overcast,10,2012-10-27 16:51:00
1:04 PM,53.6,48.2,82,29.96,10.0,North,8.1,-,N/A,,Overcast,10,2012-10-27 17:04:00
1:51 PM,51.1,48.9,92,29.94,10.0,NNW,6.9,-,N/A,,Overcast,340,2012-10-27 17:51:00
2:51 PM,51.1,48.9,92,29.93,10.0,NNW,8.1,-,0.01,,Overcast,340,2012-10-27 18:51:00
3:51 PM,50.0,48.0,93,29.93,10.0,NNW,6.9,-,0.00,,Overcast,340,2012-10-27 19:51:00
4:39 PM,48.2,46.4,93,29.94,10.0,NNW,11.5,-,N/A,,Overcast,340,2012-10-27 20:39:00
4:51 PM,48.9,46.0,90,29.93,10.0,NNW,9.2,-,N/A,,Overcast,340,2012-10-27 20:51:00
5:51 PM,48.0,46.0,93,29.93,10.0,NNW,9.2,-,0.00,,Overcast,340,2012-10-27 21:51:00
6:27 PM,46.4,44.6,93,29.94,10.0,North,10.4,-,N/A,,Overcast,360,2012-10-27 22:27:00
6:47 PM,46.4,44.6,93,29.94,10.0,North,13.8,19.6,N/A,,Overcast,360,2012-10-27 22:47:00
6:51 PM,46.9,45.0,93,29.93,10.0,NNW,13.8,-,N/A,,Overcast,340,2012-10-27 22:51:00
7:51 PM,46.0,44.1,93,29.94,10.0,NNW,11.5,-,0.00,Rain,Light Rain,340,2012-10-27 23:51:00
8:51 PM,45.0,44.1,97,29.94,10.0,NNW,10.4,-,0.00,Rain,Light Rain,340,2012-10-28 00:51:00
9:51 PM,44.1,42.1,93,29.95,10.0,NNW,11.5,-,0.00,,Overcast,340,2012-10-28 01:51:00
10:51 PM,44.1,42.1,93,29.94,10.0,North,10.4,-,0.01,,Overcast,360,2012-10-28 02:51:00
11:51 PM,43.0,42.1,97,29.94,10.0,North,8.1,-,0.00,Rain,Light Rain,10,2012-10-28 03:51:00